Regional Weather Roundup
Issued by NWS

Home | Current Version | Previous Version | Text Only | Print | Product List | Glossary On
Versions: 1 2 3 4 5 6 7 8 9 10 11 12 13 14 15 16 17 18 19 20 21 22 23 24 25 26 27 28 29 30 31 32 33 34 35 36 37 38 39 40 41 42 43 44 45 46 47 48 49 50
000
ASUS46 KSTO 282115
RWRCA

NORTHERN AND CENTRAL CA REGIONAL WEATHER ROUNDUP
NATIONAL WEATHER SERVICE SACRAMENTO CA
200 PM PDT WED SEP 28 2016

NOTE: FAIR INDICATES FEW OR NO CLOUDS BELOW 12,000 FEET WITH NO
SIGNIFICANT WEATHER AND/OR OBSTRUCTIONS TO VISIBILITY.

CAZ001-003-282200-
NORTHWEST AREA

CITY           SKY/WX    TMP DP  RH WIND       PRES   REMARKS
CRESCENT CITY  CLOUDY    55  51  86 SW6       29.97S
UKIAH          SUNNY     94  45  18 VRB5      29.83F HX  90
$$

CAZ006-505>513-282200-
BAY AREA

CITY           SKY/WX    TMP DP  RH WIND       PRES   REMARKS
SANTA ROSA     SUNNY     80  54  40 S9        29.85F
SAN RAFAEL     N/A       72  MM  MM MISG
NAPA           SUNNY     71  55  56 S13       29.88F
CONCORD        SUNNY     81  54  39 NW9       29.84F
OAKLAND CITY   N/A      MM  MM  MM MISG
OAKLAND        MOSUNNY   67  56  67 NW16      29.90S
SAN FRAN CITY  N/A       60  MM  75 MISG
SAN FRAN ARPT  MOSUNNY   65  53  65 W24       29.89F
LIVERMORE      SUNNY     90  49  24 W8        29.84F
HAYWARD        SUNNY     73  53  49 W14       29.88F
REDWOOD CITY   N/A       71  MM  61 MISG
MOFFETT ARPT   SUNNY     76  57  51 N12       29.88F
SAN JOSE ARPT  MOSUNNY   80  56  43 NW10      29.87F
$$
CAZ034-037-514>518-282200-
CENTRAL COAST

CITY           SKY/WX    TMP DP  RH WIND       PRES   REMARKS
WATSONVILLE    SUNNY     72  55  55 S7        29.92F
SALINAS        SUNNY     67  54  63 NW14      29.91S
MONTEREY       SUNNY     64  55  72 N7        29.93S
SAN LUIS OBISP SUNNY     85  52  32 W10       29.90F
SANTA MARIA    SUNNY     72  58  61 NW10      29.92F
$$
CAZ015-016-282200-
NORTHERN SACRAMENTO VALLEY

CITY           SKY/WX    TMP DP  RH WIND       PRES   REMARKS
REDDING        SUNNY     94  45  18 VRB5      29.82F HX  90
RED BLUFF      SUNNY     94  42  16 S9        29.82F HX  90
OROVILLE       SUNNY     91  49  23 S5        29.84F
$$
CAZ016>018-282200-
SOUTHERN SACRAMENTO VALLEY

CITY           SKY/WX    TMP DP  RH WIND       PRES   REMARKS
AUBURN         SUNNY     88  39  18 SW7       29.92F
BEALE AFB      SUNNY     90  47  22 S10       29.82F
LINCOLN        FAIR      90  41  18 SW8       29.83F
MARYSVILLE     SUNNY     88  49  25 S9        29.83F
SAC INTL ARPT  SUNNY     89  45  21 SW8       29.82F
MATHER AIRPORT NOT AVBL
DOWNTOWN SAC   N/A       93  MM  MM MISG
SAC EXEC ARPT  SUNNY     88  46  23 SW5       29.83F
VACAVILLE      SUNNY     90  44  20 S9        29.84F
TRAVIS AFB     SUNNY     87  49  26 SW13      29.82F
$$
CAZ019>021-282200-
SAN JOAQUIN VALLEY

CITY           SKY/WX    TMP DP  RH WIND       PRES   REMARKS
STOCKTON       SUNNY     92  45  19 W5        29.83F
MODESTO        MOSUNNY   93  40  15 S3        29.82F
MERCED         SUNNY     93  37  14 SW6       29.82F
LEMOORE        MOSUNNY   98  36  11 S7        29.82F HX  93
FRESNO         MOSUNNY   94  40  15 W3        29.84F HX  90
HANFORD        CLOUDY    96  35  11 VRB3      29.84F HX  91
PORTERVILLE    SUNNY     96  43  16 VRB6      29.85F HX  92
BAKERSFIELD    SUNNY     98  39  13 VRB3      29.83F HX  93
$$
CAZ011-012-071-282200-
NORTHERN MOUNTAINS

CITY           SKY/WX    TMP DP  RH WIND       PRES   REMARKS
YREKA          SUNNY     85  46  25 W5        29.94F
MOUNT SHASTA   SUNNY     88  43  20 MISG      29.99F
$$
CAZ011-012-071-282200-
SIERRA NEVADA MTNS

CITY           SKY/WX    TMP DP  RH WIND       PRES   REMARKS
BLUE CANYON    SUNNY     76  33  21 W8        30.15S
TRUCKEE        MOSUNNY   81  34  18 SW8       30.14F
TAHOE VLY ARPT MOSUNNY   75  34  22 VRB5      30.16F
MAMMOTH LAKES  FAIR      71  25  18 SE14      30.24F
$$



USA.gov is the U.S. government's official web portal to all federal, state and local government web resources and services.